Zurück zum Katalog

STARLINK-5158

AktivKommunikationVLEO
NORAD 54055·PAYLOAD·🇺🇸 United States

Gestartet Oct 20, 2022 von Cape Canaveral Space Force Station

Loading…

Nächste Überflüge (nächste 24 Stunden)

TLE

AktuellSource: CelesTrak SupGP

Epoche: Sep 14, 2026, 22:15 UTC

1 54055C 22136E   26257.92756944 -.00027471  00000+0 -83366-3 0  2579
2 54055  53.1589 204.0464 0001314  96.9363 277.8852 15.33559049    11

Verfolge STARLINK-5158 in Echtzeit mit AllMySat

Download on the App Store